sat.trackr.live / text

‹ back to catalog

STARLINK-3558

NORAD 52119 · 2022-029AH

PAYLOAD ACTIVE UNKNOWN

§ Identity

Operator
Country
US
Launch date
2022-03-19
Launch site
AFETR
Launch vehicle
Mass (kg)
RCS (m²)

Purposes: comms

External: N2YO · Heavens-Above · Gunter

§ Orbital elements

Epoch: 2026-09-19T17:41:14.953632Z

Period
93.85 min
Inclination
53.1584°
Eccentricity
0.0001241
Mean motion
15.34388802 rev/d
Perigee alt
461.9 km
Apogee alt
463.6 km
Semi-major
6,840.9 km
B*
5.2058e-5
RAAN
271.2329°
Arg perigee
88.6877°
Mean anomaly
271.4268°
Rev number
25,031

§ Raw data

STARLINK-35581 52119U 22029AH  26262.73697863  .00001382  00000+0  52058-4 0  99972 52119  53.1584 271.2329 0001241  88.6877 271.4268 15.34388802250317

JSON: /api/v1/satellites/52119 · /tle

For live sub-satellite position, see the globe view (requires WebGL).

§ Visibility from observer

Set your observer location to see the next 7 days of passes ≥ 10°. The values pass through the URL so the page stays shareable.

No JS? Fill the form by hand. The geolocation button needs JavaScript.